Location: Berg
(47.2344°N, 9.5296°E)
Time: 10:39:47
(UTC+00:00)

Nauka - Pass Details

Date: 19 September 2021
Orbit: 417 x 423 km, 51.6° (Epoch: 24 October)

Event Time Altitude Azimuth Distance (km) Brightness Sun altitude
Rises 17:57:59 0° 220° (SW) 2,351 ? -6.3°
Reaches altitude 10° 18:00:10 10° 211° (SSW) 1,492 ? -6.7°
Maximum altitude 18:03:15 35° 144° (SE) 692 ? -7.2°
Drops below altitude 10° 18:06:22 10° 77° (ENE) 1,503 ? -7.7°
Enters shadow 18:06:41 - 75° (ENE) 1,623 ? -7.8°
